| time (UTC) | temp F | wind direction | speed MPH | gust MPH | rain 1hr in | rain 24hr in | rain mn in | humidity % | barometer mb |
| 20260508205720 | 62 | 248 | 8.0 | 21.0 | 0.00 | 0.00 | 0.00 | 66 | 1007.4 |
| 20260508205217 | 62 | 207 | 7.0 | 11.0 | 0.00 | 0.00 | 0.00 | 66 | 1007.3 |
| 20260508204713 | 62 | 230 | 3.0 | 11.0 | 0.00 | 0.00 | 0.00 | 67 | 1007.2 |
| 20260508204209 | 62 | 245 | 2.0 | 5.0 | 0.00 | 0.00 | 0.00 | 69 | 1007.3 |
| 20260508203706 | 62 | 305 | 6.0 | 20.0 | 0.00 | 0.00 | 0.00 | 63 | 1007.5 |
| 20260508203202 | 63 | 276 | 11.0 | 24.0 | 0.00 | 0.00 | 0.00 | 65 | 1007.3 |
| 20260508202658 | 64 | 232 | 5.0 | 20.0 | 0.00 | 0.00 | 0.00 | 60 | 1007.5 |
| 20260508202155 | 64 | 218 | 11.0 | 23.0 | 0.00 | 0.00 | 0.00 | 58 | 1007.2 |
| 20260508201652 | 64 | 211 | 12.0 | 25.0 | 0.00 | 0.00 | 0.00 | 60 | 1007.4 |
| 20260508201149 | 64 | 234 | 15.0 | 26.0 | 0.00 | 0.00 | 0.00 | 60 | 1007.3 |
| 20260508200646 | 65 | 164 | 3.0 | 13.0 | 0.00 | 0.00 | 0.00 | 60 | 1007.3 |
| 20260508200142 | 65 | 216 | 12.0 | 17.0 | 0.00 | 0.00 | 0.00 | 61 | 1007.3 |
| 20260508195638 | 65 | 216 | 29.0 | 34.0 | 0.00 | 0.00 | 0.00 | 56 | 1007.3 |
| 20260508195135 | 66 | 220 | 11.0 | 28.0 | 0.00 | 0.00 | 0.00 | 57 | 1007.3 |
| 20260508194631 | 66 | 221 | 16.0 | 28.0 | 0.00 | 0.00 | 0.00 | 56 | 1007.0 |
| 20260508194128 | 66 | 230 | 18.0 | 31.0 | 0.00 | 0.00 | 0.00 | 57 | 1007.1 |
| 20260508193625 | 67 | 211 | 17.0 | 26.0 | 0.00 | 0.00 | 0.00 | 56 | 1007.4 |
| 20260508193122 | 66 | 216 | 21.0 | 27.0 | 0.00 | 0.00 | 0.00 | 57 | 1007.4 |
| 20260508192618 | 66 | 220 | 13.0 | 24.0 | 0.00 | 0.00 | 0.00 | 58 | 1007.7 |
| 20260508192116 | 66 | 207 | 20.0 | 29.0 | 0.00 | 0.00 | 0.00 | 55 | 1007.6 |
| 20260508191613 | 67 | 211 | 24.0 | 28.0 | 0.00 | 0.00 | 0.00 | 55 | 1007.7 |
| 20260508191109 | 65 | 208 | 10.0 | 22.0 | 0.00 | 0.00 | 0.00 | 59 | 1007.9 |
| 20260508190607 | 65 | 212 | 12.0 | 23.0 | 0.00 | 0.00 | 0.00 | 58 | 1008.0 |
| 20260508190103 | 64 | 209 | 15.0 | 22.0 | 0.00 | 0.00 | 0.00 | 58 | 1007.9 |
| 20260508185600 | 65 | 236 | 6.0 | 24.0 | 0.00 | 0.00 | 0.00 | 58 | 1008.2 |
| 20260508185057 | 65 | 209 | 17.0 | 20.0 | 0.00 | 0.00 | 0.00 | 59 | 1008.0 |
| 20260508184555 | 64 | 224 | 16.0 | 19.0 | 0.00 | 0.00 | 0.00 | 60 | 1008.4 |
| 20260508184051 | 65 | 215 | 5.0 | 29.0 | 0.00 | 0.00 | 0.00 | 57 | 1008.5 |
| 20260508183542 | 65 | 221 | 6.0 | 21.0 | 0.00 | 0.00 | 0.00 | 57 | 1008.4 |
| 20260508183038 | 65 | 216 | 13.0 | 28.0 | 0.00 | 0.00 | 0.00 | 57 | 1008.2 |
| 20260508182534 | 66 | 209 | 14.0 | 14.0 | 0.00 | 0.00 | 0.00 | 58 | 1008.3 |
| 20260508182025 | 67 | 220 | 8.0 | 18.0 | 0.00 | 0.00 | 0.00 | 60 | 1008.2 |
| 20260508181520 | 68 | 283 | 6.0 | 14.0 | 0.00 | 0.00 | 0.00 | 56 | 1008.2 |
| 20260508181019 | 66 | 211 | 10.0 | 25.0 | 0.00 | 0.00 | 0.00 | 57 | 1008.2 |
| 20260508180515 | 65 | 221 | 9.0 | 20.0 | 0.00 | 0.00 | 0.00 | 57 | 1008.3 |
| 20260508180011 | 65 | 211 | 5.0 | 15.0 | 0.00 | 0.00 | 0.00 | 58 | 1008.5 |
| 20260508175508 | 65 | 223 | 7.0 | 18.0 | 0.00 | 0.00 | 0.00 | 59 | 1008.4 |
| 20260508175005 | 64 | 218 | 15.0 | 26.0 | 0.00 | 0.00 | 0.00 | 58 | 1008.4 |
| 20260508174503 | 65 | 220 | 9.0 | 18.0 | 0.00 | 0.00 | 0.00 | 60 | 1008.8 |
| 20260508174000 | 65 | 220 | 9.0 | 20.0 | 0.00 | 0.00 | 0.00 | 57 | 1008.8 |
| 20260508173457 | 65 | 217 | 6.0 | 15.0 | 0.00 | 0.00 | 0.00 | 58 | 1009.0 |
| 20260508172952 | 66 | 247 | 13.0 | 16.0 | 0.00 | 0.00 | 0.00 | 58 | 1009.1 |
| 20260508172449 | 66 | 208 | 8.0 | 16.0 | 0.00 | 0.00 | 0.00 | 61 | 1009.1 |
| 20260508171946 | 66 | 215 | 11.0 | 22.0 | 0.00 | 0.00 | 0.00 | 62 | 1009.1 |
| 20260508171443 | 66 | 200 | 13.0 | 18.0 | 0.00 | 0.00 | 0.00 | 61 | 1009.4 |
| 20260508170939 | 65 | 184 | 3.0 | 17.0 | 0.00 | 0.00 | 0.00 | 64 | 1009.6 |
| 20260508170437 | 64 | 203 | 5.0 | 19.0 | 0.00 | 0.00 | 0.00 | 65 | 1009.4 |
| 20260508165933 | 64 | 226 | 9.0 | 16.0 | 0.00 | 0.00 | 0.00 | 59 | 1009.7 |
| 20260508165432 | 64 | 245 | 3.0 | 8.0 | 0.00 | 0.00 | 0.00 | 61 | 1009.6 |
| 20260508164927 | 62 | 211 | 8.0 | 15.0 | 0.00 | 0.00 | 0.00 | 60 | 1010.2 |
| 20260508164424 | 63 | 278 | 10.0 | 16.0 | 0.00 | 0.00 | 0.00 | 64 | 1010.4 |
| 20260508163922 | 64 | 218 | 11.0 | 16.0 | 0.00 | 0.00 | 0.00 | 60 | 1010.5 |
| 20260508163419 | 62 | 299 | 2.0 | 10.0 | 0.00 | 0.00 | 0.00 | 61 | 1010.6 |
| 20260508162914 | 62 | 239 | 7.0 | 11.0 | 0.00 | 0.00 | 0.00 | 64 | 1010.5 |
| 20260508162412 | 62 | 219 | 7.0 | 12.0 | 0.00 | 0.00 | 0.00 | 62 | 1010.7 |
| 20260508161909 | 62 | 214 | 4.0 | 18.0 | 0.00 | 0.00 | 0.00 | 62 | 1010.9 |
| 20260508161406 | 62 | 150 | 2.0 | 14.0 | 0.00 | 0.00 | 0.00 | 63 | 1010.7 |
| 20260508160903 | 61 | 241 | 3.0 | 20.0 | 0.00 | 0.00 | 0.00 | 65 | 1011.0 |
| 20260508160402 | 61 | 306 | 2.0 | 16.0 | 0.00 | 0.00 | 0.00 | 64 | 1011.0 |
| 20260508155857 | 60 | 233 | 8.0 | 14.0 | 0.00 | 0.00 | 0.00 | 65 | 1010.8 |
| 20260508155355 | 60 | 225 | 7.0 | 21.0 | 0.00 | 0.00 | 0.00 | 68 | 1011.1 |
| 20260508154852 | 60 | 268 | 6.0 | 12.0 | 0.00 | 0.00 | 0.00 | 65 | 1011.2 |
| 20260508154349 | 59 | 205 | 8.0 | 10.0 | 0.00 | 0.00 | 0.00 | 68 | 1011.1 |
| 20260508153846 | 58 | 219 | 6.0 | 13.0 | 0.00 | 0.00 | 0.00 | 68 | 1011.0 |
| 20260508153343 | 57 | 217 | 13.0 | 15.0 | 0.00 | 0.00 | 0.00 | 68 | 1010.9 |
| 20260508152839 | 57 | 225 | 8.0 | 12.0 | 0.00 | 0.00 | 0.00 | 71 | 1011.3 |
| 20260508152336 | 57 | 206 | 9.0 | 12.0 | 0.00 | 0.00 | 0.00 | 70 | 1011.2 |
| 20260508151832 | 56 | 214 | 5.0 | 15.0 | 0.00 | 0.00 | 0.00 | 70 | 1011.1 |
| 20260508151330 | 56 | 224 | 4.0 | 19.0 | 0.00 | 0.00 | 0.00 | 68 | 1011.0 |
| 20260508150826 | 57 | 205 | 8.0 | 11.0 | 0.00 | 0.00 | 0.00 | 68 | 1011.3 |
| 20260508150323 | 56 | 217 | 6.0 | 17.0 | 0.00 | 0.00 | 0.00 | 69 | 1011.4 |
| 20260508145819 | 57 | 215 | 13.0 | 24.0 | 0.00 | 0.00 | 0.00 | 68 | 1011.5 |
| 20260508145315 | 56 | 215 | 9.0 | 15.0 | 0.00 | 0.00 | 0.00 | 70 | 1011.4 |
| 20260508144812 | 55 | 227 | 9.0 | 19.0 | 0.00 | 0.00 | 0.00 | 71 | 1011.1 |
| 20260508144310 | 55 | 214 | 15.0 | 15.0 | 0.00 | 0.00 | 0.00 | 72 | 1011.3 |
| 20260508143807 | 55 | 211 | 12.0 | 17.0 | 0.00 | 0.00 | 0.00 | 71 | 1011.6 |
| 20260508143304 | 54 | 215 | 5.0 | 15.0 | 0.00 | 0.00 | 0.00 | 72 | 1011.2 |
| 20260508142800 | 53 | 214 | 10.0 | 12.0 | 0.00 | 0.00 | 0.00 | 74 | 1011.2 |
| 20260508142257 | 53 | 212 | 4.0 | 10.0 | 0.00 | 0.00 | 0.00 | 75 | 1011.1 |
| 20260508141754 | 53 | 225 | 6.0 | 14.0 | 0.00 | 0.00 | 0.00 | 75 | 1011.0 |
| 20260508141251 | 52 | 207 | 13.0 | 13.0 | 0.00 | 0.00 | 0.00 | 75 | 1011.3 |
| 20260508140748 | 52 | 200 | 9.0 | 11.0 | 0.00 | 0.00 | 0.00 | 77 | 1011.1 |
| 20260508140245 | 52 | 213 | 7.0 | 13.0 | 0.00 | 0.00 | 0.00 | 76 | 1011.1 |
| 20260508135741 | 52 | 180 | 4.0 | 10.0 | 0.00 | 0.00 | 0.00 | 74 | 1011.3 |
| 20260508135237 | 52 | 209 | 13.0 | 15.0 | 0.00 | 0.00 | 0.00 | 73 | 1011.2 |
| 20260508134733 | 51 | 219 | 9.0 | 15.0 | 0.00 | 0.00 | 0.00 | 73 | 1011.0 |
| 20260508134230 | 51 | 208 | 11.0 | 11.0 | 0.00 | 0.00 | 0.00 | 75 | 1011.1 |
| 20260508133727 | 51 | 217 | 6.0 | 12.0 | 0.00 | 0.00 | 0.00 | 74 | 1011.2 |
| 20260508133225 | 51 | 195 | 9.0 | 13.0 | 0.00 | 0.00 | 0.00 | 77 | 1011.3 |
| 20260508132722 | 51 | 217 | 6.0 | 13.0 | 0.00 | 0.00 | 0.00 | 76 | 1011.2 |
| 20260508132220 | 51 | 215 | 4.0 | 11.0 | 0.00 | 0.00 | 0.00 | 76 | 1011.2 |
| 20260508131715 | 50 | 199 | 4.0 | 12.0 | 0.00 | 0.00 | 0.00 | 76 | 1011.4 |
| 20260508131212 | 50 | 202 | 3.0 | 8.0 | 0.00 | 0.00 | 0.00 | 76 | 1011.1 |
| 20260508130708 | 50 | 204 | 5.0 | 10.0 | 0.00 | 0.00 | 0.00 | 76 | 1011.3 |
| 20260508130205 | 50 | 204 | 2.0 | 11.0 | 0.00 | 0.00 | 0.00 | 76 | 1011.3 |
| 20260508125700 | 50 | 194 | 4.0 | 9.0 | 0.00 | 0.00 | 0.00 | 76 | 1011.4 |
| 20260508125157 | 50 | 209 | 7.0 | 12.0 | 0.00 | 0.00 | 0.00 | 76 | 1011.2 |
| 20260508124655 | 50 | 222 | 7.0 | 11.0 | 0.00 | 0.00 | 0.00 | 77 | 1011.2 |
| 20260508124152 | 50 | 200 | 6.0 | 10.0 | 0.00 | 0.00 | 0.00 | 76 | 1011.2 |
| 20260508123651 | 50 | 309 | 2.0 | 9.0 | 0.00 | 0.00 | 0.00 | 77 | 1011.3 |
| 20260508123149 | 50 | 243 | 5.0 | 16.0 | 0.00 | 0.00 | 0.00 | 78 | 1011.3 |
| 20260508122644 | 50 | 196 | 4.0 | 12.0 | 0.00 | 0.00 | 0.00 | 78 | 1011.1 |
| 20260508122141 | 49 | 206 | 4.0 | 8.0 | 0.00 | 0.00 | 0.00 | 78 | 1011.2 |
| 20260508121639 | 49 | 198 | 3.0 | 13.0 | 0.00 | 0.00 | 0.00 | 78 | 1011.1 |
| 20260508121137 | 49 | 197 | 4.0 | 7.0 | 0.00 | 0.00 | 0.00 | 78 | 1011.2 |
| 20260508120634 | 49 | 210 | 8.0 | 12.0 | 0.00 | 0.00 | 0.00 | 78 | 1011.1 |
| 20260508120133 | 49 | 216 | 8.0 | 11.0 | 0.00 | 0.00 | 0.00 | 78 | 1010.9 |
| 20260508115630 | 48 | 215 | 8.0 | 11.0 | 0.00 | 0.00 | 0.00 | 79 | 1010.9 |
| 20260508115126 | 48 | 213 | 8.0 | 12.0 | 0.00 | 0.00 | 0.00 | 79 | 1011.0 |
| 20260508114624 | 48 | 197 | 6.0 | 11.0 | 0.00 | 0.00 | 0.00 | 79 | 1011.0 |
| 20260508114119 | 48 | 197 | 5.0 | 12.0 | 0.00 | 0.00 | 0.00 | 79 | 1011.1 |
| 20260508113617 | 48 | 198 | 4.0 | 12.0 | 0.00 | 0.00 | 0.00 | 79 | 1010.9 |
| 20260508113115 | 48 | 211 | 3.0 | 9.0 | 0.00 | 0.00 | 0.00 | 80 | 1010.7 |
| 20260508112611 | 47 | 195 | 5.0 | 8.0 | 0.00 | 0.00 | 0.00 | 80 | 1011.0 |
| 20260508112108 | 47 | 210 | 7.0 | 8.0 | 0.00 | 0.00 | 0.00 | 80 | 1010.7 |
| 20260508111605 | 47 | 212 | 5.0 | 8.0 | 0.00 | 0.00 | 0.00 | 79 | 1010.7 |
| 20260508111102 | 47 | 195 | 2.0 | 6.0 | 0.00 | 0.00 | 0.00 | 81 | 1010.8 |
| 20260508110600 | 47 | 205 | 4.0 | 7.0 | 0.00 | 0.00 | 0.00 | 80 | 1010.8 |
| 20260508110056 | 47 | 216 | 6.0 | 11.0 | 0.00 | 0.00 | 0.00 | 78 | 1010.8 |
| 20260508105551 | 47 | 201 | 5.0 | 9.0 | 0.00 | 0.00 | 0.00 | 80 | 1010.8 |
| 20260508105048 | 47 | 201 | 4.0 | 7.0 | 0.00 | 0.00 | 0.00 | 80 | 1010.6 |
| 20260508104546 | 47 | 204 | 7.0 | 10.0 | 0.00 | 0.00 | 0.00 | 79 | 1010.7 |
| 20260508104042 | 47 | 206 | 3.0 | 9.0 | 0.00 | 0.00 | 0.00 | 80 | 1010.7 |
| 20260508103539 | 46 | 206 | 7.0 | 9.0 | 0.00 | 0.00 | 0.00 | 80 | 1010.9 |
| 20260508103037 | 46 | 199 | 5.0 | 6.0 | 0.00 | 0.00 | 0.00 | 80 | 1010.6 |
| 20260508102534 | 46 | 189 | 3.0 | 7.0 | 0.00 | 0.00 | 0.00 | 80 | 1010.5 |
| 20260508102032 | 46 | 200 | 4.0 | 7.0 | 0.00 | 0.00 | 0.00 | 80 | 1010.5 |
| 20260508101529 | 46 | 183 | 2.0 | 6.0 | 0.00 | 0.00 | 0.00 | 80 | 1010.6 |
| 20260508101026 | 46 | 206 | 4.0 | 7.0 | 0.00 | 0.00 | 0.00 | 80 | 1010.7 |
| 20260508100524 | 45 | 200 | 3.0 | 6.0 | 0.00 | 0.00 | 0.00 | 81 | 1010.5 |
| 20260508100021 | 46 | 173 | 2.0 | 6.0 | 0.00 | 0.00 | 0.00 | 80 | 1010.5 |
| 20260508095518 | 46 | 197 | 3.0 | 8.0 | 0.00 | 0.00 | 0.00 | 79 | 1010.3 |
| 20260508095015 | 46 | 176 | 3.0 | 5.0 | 0.00 | 0.00 | 0.00 | 78 | 1010.3 |
| 20260508094512 | 47 | 185 | 3.0 | 4.0 | 0.00 | 0.00 | 0.00 | 77 | 1010.6 |
| 20260508094009 | 46 | 202 | 4.0 | 7.0 | 0.00 | 0.00 | 0.00 | 78 | 1010.5 |
| 20260508093506 | 47 | 203 | 4.0 | 11.0 | 0.00 | 0.00 | 0.00 | 77 | 1010.4 |
| 20260508093004 | 47 | 213 | 5.0 | 9.0 | 0.00 | 0.00 | 0.00 | 78 | 1010.6 |
| 20260508092500 | 47 | 208 | 3.0 | 9.0 | 0.00 | 0.00 | 0.00 | 77 | 1010.5 |
| 20260508092000 | 46 | 217 | 6.0 | 10.0 | 0.00 | 0.00 | 0.00 | 79 | 1010.5 |
| 20260508091456 | 46 | 219 | 8.0 | 12.0 | 0.00 | 0.00 | 0.00 | 79 | 1010.6 |
| 20260508090953 | 46 | 202 | 5.0 | 9.0 | 0.00 | 0.00 | 0.00 | 78 | 1010.7 |
| 20260508090452 | 46 | 196 | 5.0 | 8.0 | 0.00 | 0.00 | 0.00 | 79 | 1010.6 |
| 20260508085947 | 46 | 204 | 6.0 | 10.0 | 0.00 | 0.00 | 0.00 | 79 | 1010.5 |
| 20260508085444 | 46 | 214 | 5.0 | 8.0 | 0.00 | 0.00 | 0.00 | 79 | 1010.6 |
| 20260508084941 | 46 | 221 | 5.0 | 9.0 | 0.00 | 0.00 | 0.00 | 79 | 1010.8 |
| 20260508084437 | 46 | 189 | 4.0 | 9.0 | 0.00 | 0.00 | 0.00 | 79 | 1010.6 |
| 20260508083936 | 46 | 175 | 3.0 | 7.0 | 0.00 | 0.00 | 0.00 | 80 | 1010.6 |
| 20260508083432 | 46 | 216 | 5.0 | 7.0 | 0.00 | 0.00 | 0.00 | 78 | 1010.6 |
| 20260508082932 | 47 | 205 | 4.0 | 7.0 | 0.00 | 0.00 | 0.00 | 77 | 1010.4 |
| 20260508082430 | 47 | 194 | 4.0 | 8.0 | 0.00 | 0.00 | 0.00 | 78 | 1010.7 |
| 20260508081928 | 47 | 203 | 6.0 | 12.0 | 0.00 | 0.00 | 0.00 | 76 | 1010.5 |
| 20260508081424 | 47 | 208 | 4.0 | 9.0 | 0.00 | 0.00 | 0.00 | 76 | 1010.5 |
| 20260508080920 | 47 | 208 | 8.0 | 8.0 | 0.00 | 0.00 | 0.00 | 78 | 1010.8 |
| 20260508080419 | 47 | 196 | 4.0 | 7.0 | 0.00 | 0.00 | 0.00 | 76 | 1010.7 |
| 20260508075915 | 48 | 213 | 6.0 | 7.0 | 0.00 | 0.00 | 0.00 | 75 | 1010.7 |
| 20260508075412 | 47 | 195 | 4.0 | 7.0 | 0.00 | 0.00 | 0.00 | 76 | 1010.8 |
| 20260508074910 | 47 | 152 | 2.0 | 6.0 | 0.00 | 0.00 | 0.00 | 76 | 1010.6 |
| 20260508074407 | 47 | 201 | 5.0 | 7.0 | 0.00 | 0.00 | 0.00 | 77 | 1010.7 |
| 20260508073904 | 47 | 216 | 6.0 | 8.0 | 0.00 | 0.00 | 0.00 | 77 | 1010.8 |
| 20260508073402 | 47 | 199 | 4.0 | 10.0 | 0.00 | 0.00 | 0.00 | 78 | 1010.9 |
| 20260508072858 | 47 | 197 | 4.0 | 5.0 | 0.00 | 0.00 | 0.00 | 78 | 1010.7 |
| 20260508072354 | 47 | 208 | 4.0 | 6.0 | 0.00 | 0.00 | 0.00 | 79 | 1010.7 |
| 20260508071852 | 47 | 175 | 1.0 | 7.0 | 0.00 | 0.00 | 0.00 | 78 | 1011.0 |
| 20260508071350 | 47 | 162 | 2.0 | 6.0 | 0.00 | 0.00 | 0.00 | 78 | 1011.0 |
| 20260508070848 | 48 | 201 | 5.0 | 8.0 | 0.00 | 0.00 | 0.00 | 76 | 1010.9 |
| 20260508070345 | 48 | 198 | 4.0 | 7.0 | 0.00 | 0.00 | 0.00 | 76 | 1010.9 |
| 20260508065843 | 48 | 198 | 4.0 | 8.0 | 0.00 | 0.00 | 0.00 | 76 | 1011.0 |
| 20260508065341 | 48 | 207 | 3.0 | 6.0 | 0.00 | 0.00 | 0.00 | 76 | 1011.0 |
| 20260508064838 | 48 | 186 | 4.0 | 8.0 | 0.00 | 0.00 | 0.00 | 76 | 1011.2 |
| 20260508064330 | 48 | 136 | 1.0 | 4.0 | 0.00 | 0.00 | 0.00 | 77 | 1011.0 |
| 20260508063828 | 48 | 170 | 0.0 | 3.0 | 0.00 | 0.00 | 0.00 | 77 | 1010.9 |
| 20260508063325 | 48 | 174 | 2.0 | 6.0 | 0.00 | 0.00 | 0.00 | 76 | 1011.0 |
| 20260508062822 | 48 | 178 | 3.0 | 3.0 | 0.00 | 0.00 | 0.00 | 77 | 1011.2 |
| 20260508062320 | 49 | 192 | 2.0 | 7.0 | 0.00 | 0.00 | 0.00 | 75 | 1011.1 |
| 20260508061816 | 49 | 196 | 3.0 | 6.0 | 0.00 | 0.00 | 0.00 | 75 | 1011.2 |
| 20260508061313 | 49 | 196 | 2.0 | 3.0 | 0.00 | 0.00 | 0.00 | 75 | 1011.4 |
| 20260508060810 | 49 | 205 | 4.0 | 5.0 | 0.00 | 0.00 | 0.00 | 74 | 1011.4 |
| 20260508060308 | 49 | 206 | 1.0 | 7.0 | 0.00 | 0.00 | 0.00 | 73 | 1011.2 |
| 20260508055803 | 49 | 213 | 5.0 | 5.0 | 0.00 | 0.00 | 0.00 | 74 | 1011.0 |
| 20260508055301 | 50 | 208 | 4.0 | 6.0 | 0.00 | 0.00 | 0.00 | 73 | 1011.3 |
| 20260508054756 | 50 | 217 | 1.0 | 4.0 | 0.00 | 0.00 | 0.00 | 73 | 1011.3 |
| 20260508054255 | 50 | 222 | 5.0 | 6.0 | 0.00 | 0.00 | 0.00 | 71 | 1011.3 |
| 20260508053751 | 50 | 201 | 5.0 | 8.0 | 0.00 | 0.00 | 0.00 | 70 | 1011.1 |
| 20260508053249 | 51 | 197 | 3.0 | 9.0 | 0.00 | 0.00 | 0.00 | 71 | 1011.0 |
| 20260508052746 | 51 | 219 | 4.0 | 8.0 | 0.00 | 0.00 | 0.00 | 72 | 1011.3 |
| 20260508052243 | 51 | 204 | 6.0 | 14.0 | 0.00 | 0.00 | 0.00 | 72 | 1011.1 |
| 20260508051739 | 51 | 212 | 9.0 | 12.0 | 0.00 | 0.00 | 0.00 | 72 | 1011.3 |
| 20260508051235 | 51 | 213 | 7.0 | 14.0 | 0.00 | 0.00 | 0.00 | 71 | 1011.3 |
| 20260508050731 | 52 | 210 | 2.0 | 12.0 | 0.00 | 0.00 | 0.00 | 69 | 1011.4 |
| 20260508050228 | 53 | 239 | 5.0 | 23.0 | 0.00 | 0.00 | 0.00 | 67 | 1011.3 |
| 20260508045724 | 52 | 221 | 11.0 | 22.0 | 0.00 | 0.00 | 0.00 | 70 | 1011.1 |
| 20260508045222 | 52 | 220 | 13.0 | 22.0 | 0.00 | 0.00 | 0.00 | 68 | 1011.2 |
| 20260508044719 | 51 | 216 | 3.0 | 30.0 | 0.00 | 0.00 | 0.00 | 73 | 1011.8 |
| 20260508044216 | 50 | 325 | 18.0 | 24.0 | 0.00 | 0.00 | 0.00 | 80 | 1012.0 |
| 20260508043712 | 51 | 149 | 1.0 | 8.0 | 0.00 | 0.00 | 0.00 | 74 | 1011.4 |
| 20260508043210 | 51 | 192 | 2.0 | 10.0 | 0.00 | 0.00 | 0.00 | 75 | 1010.9 |
| 20260508042706 | 50 | 217 | 3.0 | 6.0 | 0.00 | 0.00 | 0.00 | 76 | 1011.0 |
| 20260508042204 | 50 | 199 | 9.0 | 9.0 | 0.00 | 0.00 | 0.00 | 76 | 1010.9 |
| 20260508041700 | 50 | 159 | 2.0 | 9.0 | 0.00 | 0.00 | 0.00 | 75 | 1010.9 |
| 20260508041157 | 50 | 165 | 1.0 | 6.0 | 0.00 | 0.00 | 0.00 | 77 | 1011.2 |
| 20260508040653 | 50 | 129 | 0.0 | 4.0 | 0.00 | 0.00 | 0.00 | 77 | 1011.0 |
| 20260508040151 | 50 | 149 | 5.0 | 7.0 | 0.00 | 0.00 | 0.00 | 77 | 1010.7 |
| 20260508035648 | 50 | 133 | 3.0 | 6.0 | 0.00 | 0.00 | 0.00 | 77 | 1010.9 |
| 20260508035145 | 50 | 115 | 1.0 | 5.0 | 0.00 | 0.00 | 0.00 | 77 | 1010.9 |
| 20260508034641 | 50 | 116 | 3.0 | 5.0 | 0.00 | 0.00 | 0.00 | 78 | 1011.0 |
| 20260508034138 | 49 | 56 | 1.0 | 3.0 | 0.00 | 0.00 | 0.00 | 79 | 1011.2 |
| 20260508033636 | 50 | 157 | 2.0 | 5.0 | 0.00 | 0.00 | 0.00 | 78 | 1011.1 |
| 20260508033134 | 49 | 101 | 1.0 | 6.0 | 0.00 | 0.00 | 0.00 | 78 | 1011.2 |
| 20260508032630 | 49 | 163 | 1.0 | 4.0 | 0.00 | 0.00 | 0.00 | 78 | 1011.1 |
| 20260508032128 | 49 | 152 | 2.0 | 3.0 | 0.00 | 0.00 | 0.00 | 79 | 1011.1 |
| 20260508031625 | 49 | 127 | 2.0 | 4.0 | 0.00 | 0.00 | 0.00 | 79 | 1011.2 |
| 20260508031121 | 49 | 171 | 1.0 | 5.0 | 0.00 | 0.00 | 0.00 | 79 | 1011.1 |
| 20260508030617 | 49 | 195 | 2.0 | 3.0 | 0.00 | 0.00 | 0.00 | 79 | 1011.4 |
| 20260508030115 | 49 | 208 | 2.0 | 3.0 | 0.00 | 0.00 | 0.00 | 79 | 1011.4 |
| 20260508025611 | 50 | 154 | 0.0 | 5.0 | 0.00 | 0.00 | 0.00 | 80 | 1011.5 |
| 20260508025109 | 49 | 169 | 1.0 | 3.0 | 0.00 | 0.00 | 0.00 | 80 | 1011.3 |
| 20260508024604 | 49 | 164 | 1.0 | 3.0 | 0.00 | 0.00 | 0.00 | 80 | 1011.6 |
| 20260508024102 | 49 | 158 | 1.0 | 2.0 | 0.00 | 0.00 | 0.00 | 78 | 1011.4 |
| 20260508023558 | 49 | 155 | 1.0 | 2.0 | 0.00 | 0.00 | 0.00 | 81 | 1011.5 |
| 20260508023055 | 50 | 205 | 2.0 | 4.0 | 0.00 | 0.00 | 0.00 | 80 | 1011.5 |
| 20260508022551 | 49 | 139 | 0.0 | 3.0 | 0.00 | 0.00 | 0.00 | 82 | 1011.2 |
| 20260508022049 | 50 | 182 | 1.0 | 3.0 | 0.00 | 0.00 | 0.00 | 82 | 1011.0 |
| 20260508021544 | 49 | 124 | 2.0 | 3.0 | 0.00 | 0.00 | 0.00 | 78 | 1011.3 |
| 20260508021040 | 50 | 111 | 1.0 | 1.0 | 0.00 | 0.00 | 0.00 | 81 | 1011.5 |
| 20260508020538 | 50 | 131 | 0.0 | 2.0 | 0.00 | 0.00 | 0.00 | 76 | 1011.5 |
| 20260508020036 | 50 | 139 | 1.0 | 3.0 | 0.00 | 0.00 | 0.00 | 77 | 1011.6 |
| 20260508015533 | 50 | 130 | 2.0 | 3.0 | 0.00 | 0.00 | 0.00 | 78 | 1011.1 |
| 20260508015030 | 50 | 140 | 0.0 | 3.0 | 0.00 | 0.00 | 0.00 | 77 | 1011.2 |
| 20260508014526 | 50 | 133 | 2.0 | 3.0 | 0.00 | 0.00 | 0.00 | 76 | 1011.1 |
| 20260508014022 | 50 | 135 | 0.0 | 2.0 | 0.00 | 0.00 | 0.00 | 77 | 1011.1 |
| 20260508013518 | 50 | 118 | 0.0 | 1.0 | 0.00 | 0.00 | 0.00 | 79 | 1011.2 |
| 20260508013016 | 51 | 232 | 0.0 | 3.0 | 0.00 | 0.00 | 0.00 | 77 | 1011.4 |
| 20260508012513 | 51 | 199 | 2.0 | 3.0 | 0.00 | 0.00 | 0.00 | 72 | 1010.9 |
| 20260508012010 | 51 | 162 | 2.0 | 3.0 | 0.00 | 0.00 | 0.00 | 73 | 1011.0 |
| 20260508011509 | 51 | 189 | 3.0 | 4.0 | 0.00 | 0.00 | 0.00 | 72 | 1011.2 |
| 20260508011006 | 51 | 174 | 1.0 | 3.0 | 0.00 | 0.00 | 0.00 | 71 | 1011.3 |
| 20260508010502 | 51 | 180 | 2.0 | 5.0 | 0.00 | 0.00 | 0.00 | 70 | 1011.1 |
| 20260508005959 | 51 | 193 | 2.0 | 7.0 | 0.00 | 0.00 | 0.00 | 70 | 1011.1 |
| 20260508005450 | 51 | 186 | 2.0 | 4.0 | 0.00 | 0.00 | 0.00 | 73 | 1011.3 |
| 20260508004947 | 51 | 229 | 2.0 | 3.0 | 0.00 | 0.00 | 0.00 | 74 | 1011.6 |
| 20260508004443 | 52 | 237 | 3.0 | 6.0 | 0.00 | 0.00 | 0.00 | 68 | 1011.4 |
| 20260508003940 | 52 | 279 | 1.0 | 6.0 | 0.00 | 0.00 | 0.00 | 70 | 1011.4 |
| 20260508003436 | 52 | 197 | 2.0 | 5.0 | 0.00 | 0.00 | 0.00 | 69 | 1011.0 |
| 20260508002934 | 52 | 257 | 4.0 | 6.0 | 0.00 | 0.00 | 0.00 | 67 | 1011.3 |
| 20260508002430 | 52 | 328 | 3.0 | 7.0 | 0.00 | 0.00 | 0.00 | 65 | 1011.6 |
| 20260508001926 | 52 | 263 | 4.0 | 7.0 | 0.00 | 0.00 | 0.00 | 66 | 1011.4 |
| 20260508001423 | 53 | 307 | 6.0 | 13.0 | 0.00 | 0.00 | 0.00 | 63 | 1011.4 |
| 20260508000920 | 53 | 289 | 1.0 | 11.0 | 0.00 | 0.00 | 0.00 | 66 | 1011.5 |
| 20260508000415 | 53 | 335 | 3.0 | 17.0 | 0.00 | 0.00 | 0.00 | 64 | 1011.3 |
| 20260507235913 | 53 | 262 | 5.0 | 14.0 | 0.00 | 0.00 | 0.00 | 61 | 1011.3 |
| 20260507235410 | 53 | 319 | 10.0 | 12.0 | 0.00 | 0.00 | 0.00 | 62 | 1011.3 |
| 20260507234907 | 53 | 302 | 3.0 | 8.0 | 0.00 | 0.00 | 0.00 | 63 | 1011.3 |
| 20260507234403 | 53 | 223 | 4.0 | 14.0 | 0.00 | 0.00 | 0.00 | 62 | 1011.3 |
| 20260507233900 | 53 | 337 | 5.0 | 10.0 | 0.00 | 0.00 | 0.00 | 58 | 1011.5 |
| 20260507233357 | 54 | 305 | 8.0 | 22.0 | 0.00 | 0.00 | 0.00 | 57 | 1011.2 |
| 20260507232855 | 55 | 317 | 13.0 | 21.0 | 0.00 | 0.00 | 0.00 | 52 | 1011.2 |
| 20260507232351 | 54 | 314 | 12.0 | 18.0 | 0.00 | 0.00 | 0.00 | 55 | 1011.3 |
| 20260507231849 | 55 | 292 | 15.0 | 19.0 | 0.00 | 0.00 | 0.00 | 51 | 1011.3 |
| 20260507231345 | 56 | 299 | 4.0 | 13.0 | 0.00 | 0.00 | 0.00 | 54 | 1011.0 |
| 20260507230841 | 56 | 238 | 3.0 | 9.0 | 0.00 | 0.00 | 0.00 | 52 | 1010.9 |
| 20260507230339 | 56 | 303 | 1.0 | 9.0 | 0.00 | 0.00 | 0.00 | 50 | 1011.1 |
| 20260507225838 | 56 | 217 | 3.0 | 9.0 | 0.00 | 0.00 | 0.00 | 50 | 1011.0 |
| 20260507225335 | 57 | 207 | 7.0 | 9.0 | 0.00 | 0.00 | 0.00 | 52 | 1010.8 |
| 20260507224831 | 57 | 219 | 5.0 | 7.0 | 0.00 | 0.00 | 0.00 | 51 | 1010.9 |
| 20260507224328 | 57 | 230 | 1.0 | 10.0 | 0.00 | 0.00 | 0.00 | 51 | 1010.8 |
| 20260507223824 | 57 | 193 | 4.0 | 11.0 | 0.00 | 0.00 | 0.00 | 51 | 1011.0 |
| 20260507223320 | 57 | 217 | 3.0 | 10.0 | 0.00 | 0.00 | 0.00 | 50 | 1011.2 |
| 20260507222818 | 57 | 206 | 0.0 | 5.0 | 0.00 | 0.00 | 0.00 | 55 | 1010.9 |
| 20260507222314 | 57 | 232 | 5.0 | 9.0 | 0.00 | 0.00 | 0.00 | 50 | 1011.1 |
| 20260507221811 | 57 | 238 | 2.0 | 8.0 | 0.00 | 0.00 | 0.00 | 47 | 1011.0 |
| 20260507221307 | 57 | 288 | 5.0 | 9.0 | 0.00 | 0.00 | 0.00 | 47 | 1011.0 |
| 20260507220803 | 56 | 209 | 7.0 | 10.0 | 0.00 | 0.00 | 0.00 | 52 | 1011.3 |
| 20260507220302 | 57 | 285 | 5.0 | 7.0 | 0.00 | 0.00 | 0.00 | 49 | 1011.2 |
| 20260507215758 | 58 | 224 | 4.0 | 10.0 | 0.00 | 0.00 | 0.00 | 51 | 1011.1 |
| 20260507215255 | 58 | 315 | 5.0 | 12.0 | 0.00 | 0.00 | 0.00 | 48 | 1011.2 |
| 20260507214752 | 59 | 320 | 8.0 | 16.0 | 0.00 | 0.00 | 0.00 | 44 | 1011.2 |
| 20260507214250 | 58 | 326 | 4.0 | 16.0 | 0.00 | 0.00 | 0.00 | 49 | 1011.2 |
| 20260507213744 | 58 | 253 | 7.0 | 16.0 | 0.00 | 0.00 | 0.00 | 49 | 1011.2 |
| 20260507213242 | 59 | 311 | 3.0 | 11.0 | 0.00 | 0.00 | 0.00 | 46 | 1011.1 |
| 20260507212738 | 59 | 231 | 13.0 | 18.0 | 0.00 | 0.00 | 0.00 | 45 | 1011.2 |
| 20260507212229 | 59 | 143 | 5.0 | 18.0 | 0.00 | 0.00 | 0.00 | 46 | 1011.3 |
| 20260507211726 | 59 | 254 | 7.0 | 13.0 | 0.00 | 0.00 | 0.00 | 46 | 1011.0 |
| 20260507211222 | 58 | 263 | 6.0 | 13.0 | 0.00 | 0.00 | 0.00 | 47 | 1010.9 |
| 20260507210719 | 59 | 230 | 2.0 | 16.0 | 0.00 | 0.00 | 0.00 | 46 | 1011.1 |
| 20260507210216 | 59 | 315 | 11.0 | 15.0 | 0.00 | 0.00 | 0.00 | 51 | 1011.3 |